Location: Micha?ów
(50.9103°N, 19.3623°E)
Time: 05:21:09
(UTC+00:00)

Daily predictions for brighter satellites

Satellite Brightness Start Highest point End
(mag) Time Altitude Azimuth Time Altitude Azimuth Time Altitude Azimuth
Cosmos 1992 Rocket 3.8 00:05:01 71° SSW 00:05:37 87° ESE 00:10:53 10° NNE
Cosmos 1726 Rocket 3.6 00:07:11 67° NW 00:07:11 67° NW 00:11:08 10° N
PSLV R/B 4.1 00:05:08 10° NNE 00:08:26 63° N 00:08:26 63° N
Meteor 1-26 Rocket 4.1 00:09:29 57° SSE 00:10:31 74° E 00:15:56 10° NNE
Cosmos 1536 3.1 00:09:07 10° N 00:12:17 57° NNE 00:12:17 57° NNE
ATLAS 2AS CENTAUR R/B 3.4 00:09:45 22° W 00:14:03 47° NNW 00:20:37 10° NE
IDEFIX/ARIANE 42P 3.0 00:10:17 10° NNE 00:15:22 53° E 00:16:41 42° SSE
Cosmos 1953 Rocket 4.0 00:18:22 10° NNW 00:22:18 49° WNW 00:22:18 49° WNW
Nimbus 7 Rocket 4.5 00:18:01 10° NNE 00:24:08 76° ESE 00:26:11 44° S
USA 234 3.6 00:18:35 10° E 00:25:03 67° NNE 00:31:33 10° WNW
Cosmos 1980 Rocket 3.5 00:20:39 10° NW 00:24:20 24° W 00:24:20 24° W
Cosmos 2084 Rocket 4.5 00:21:17 10° NW 00:25:18 44° NE 00:29:23 10° ESE
Cosmos 1766 4.2 00:22:19 10° NNW 00:24:17 34° NNW 00:24:17 34° NNW
Cosmos 1707 3.6 00:31:24 33° N 00:31:24 33° N 00:33:10 10° N
Cosmos 44 Rocket 3.3 00:29:47 60° SSW 00:30:42 82° SE 00:35:55 10° NE
ADEOS II 4.5 00:27:41 10° NE 00:30:51 16° E 00:33:59 10° SE
COSMOS 2406 3.3 00:32:29 47° S 00:34:09 73° ESE 00:39:55 10° NNE
MSX 3.9 00:28:53 10° NNE 00:34:40 75° ESE 00:36:45 41° S
H-2A R/B 4.5 00:31:54 10° ESE 00:34:44 22° ENE 00:37:34 10° NNE
Cosmos 1975 3.5 00:32:01 10° N 00:35:32 45° ENE 00:36:20 38° ESE
Cosmos 2369 4.3 00:31:33 10° NW 00:36:37 37° WSW 00:36:37 37° WSW
ADEOS Rocket 3.9 00:29:32 10° NNE 00:37:01 59° E 00:41:54 24° S
SL-08 ROCKET BODY 4.3 00:31:47 10° NNW 00:37:47 75° W 00:40:00 41° S
Cosmos 1634 Rocket 4.0 00:35:56 44° SW 00:37:53 68° WNW 00:44:03 10° N
ALOS 4.4 00:35:01 10° NE 00:38:22 20° E 00:41:29 11° SE
CZ-2D R/B 3.9 00:35:02 10° NE 00:39:17 24° E 00:43:17 11° SE
Cosmos 724 4.3 00:44:49 41° SW 00:47:03 77° NW 00:53:02 10° NE
Cosmos 2084 4.4 00:46:23 31° WNW 00:47:34 38° NNW 00:51:27 10° NE
Cosmos 1607 3.9 00:47:22 41° SW 00:49:43 89° NW 00:56:02 10° NE
Cosmos 1354 Rocket 4.3 00:46:43 10° NNW 00:52:01 67° ENE 00:57:14 10° SE
Cosmos-2242 3.4 00:52:12 42° W 00:52:30 43° WNW 00:56:31 10° N
Cosmos 2360 Rocket 2.3 00:47:08 10° NNW 00:52:51 77° ENE 00:58:31 10° SE
Cosmos 1503 Rocket 3.9 00:48:09 10° NNW 00:53:28 88° WSW 00:56:50 23° SSE
Cosmos 2333 Rocket 2.1 00:48:13 10° NW 00:53:51 69° WSW 00:57:05 26° SSE
FENGYUN 3A 3.7 00:48:59 10° NNE 00:54:28 81° ESE 00:56:43 37° S
USA 281 3.2 00:51:27 30° S 00:54:46 59° WSW 01:01:17 10° NNW
Cosmos 220 Rocket 3.8 00:56:20 59° S 00:57:00 77° ESE 01:01:02 10° NNE
Cosmos 2082 Rocket 2.9 00:59:24 29° WSW 01:01:49 44° NW 01:07:18 10° NNE
Cosmos 1842 2.8 01:02:44 66° NW 01:02:44 66° NW 01:05:42 10° N
Cosmos 540 Rocket 4.1 01:01:37 27° SSE 01:04:06 49° ESE 01:09:04 10° NNE
Cosmos 2279 Rocket 4.1 01:03:59 35° SW 01:06:37 60° WNW 01:12:49 10° N
Meteor 2-9 Rocket 4.0 01:02:10 10° NNW 01:07:30 75° W 01:10:19 28° S
Cosmos 2278 3.7 01:01:57 10° NW 01:07:35 60° WSW 01:11:11 22° S
NPP 3.6 01:02:11 10° NNE 01:07:36 79° WNW 01:09:56 35° SSW
Cosmos 1486 Rocket 4.2 01:03:08 10° NNW 01:08:08 48° WSW 01:09:36 37° SSW
Cosmos 2322 Rocket 2.1 01:02:29 10° NNW 01:08:08 80° WSW 01:13:48 10° SSE
DNEPR-1 R/B 4.5 01:03:00 10° NW 01:08:09 71° NE 01:14:28 10° SE
Resurs 1-4 Rocket 3.0 01:03:21 10° NNE 01:08:26 44° E 01:12:17 17° SSE
Cosmos 2221 2.3 01:07:41 47° S 01:08:50 89° E 01:13:00 10° N
USA 305 3.9 01:16:13 19° NE 01:16:13 19° NE 01:16:52 10° NE
ACS3 Solar Sail 2.7 01:10:31 10° N 01:15:53 35° WNW 01:18:33 24° WSW
NOSS 3-3 (A) 3.7 01:14:12 34° SW 01:16:40 87° NW 01:23:05 10° NE
Cosmos 1777 Rocket 4.3 01:13:46 10° NW 01:18:47 45° WSW 01:20:41 32° SSW
Cosmos 1766 Rocket 4.5 01:15:08 10° N 01:19:22 47° ENE 01:23:32 10° SSE
Cosmos 2219 Rocket 2.3 01:16:29 10° NNW 01:22:10 81° ENE 01:27:49 10° SSE
SL-16 R/B 2.7 01:17:46 10° NW 01:22:58 38° WSW 01:24:53 29° SSW
H-2A R/B 3.1 01:18:15 10° NNE 01:23:06 41° E 01:27:58 10° SSE
Meteor 1-11 Rocket 3.7 01:17:58 10° NNW 01:23:55 82° W 01:29:12 13° S
CZ-4C R/B 2.9 01:22:06 22° W 01:24:49 42° NNW 01:30:26 10° NE
Meteor 1-19 Rocket 4.1 01:22:10 27° SSW 01:25:15 85° WNW 01:30:54 10° NNE
Cosmos 1271 Rocket 2.4 01:27:38 48° SW 01:28:23 64° WNW 01:31:51 10° N
NOAA 11 4.1 01:23:21 10° NNE 01:28:48 83° WNW 01:32:03 25° SSW
USA 267 3.5 01:23:24 10° ENE 01:29:55 61° SE 01:34:01 24° SW
SL-4 R/B 2.2 01:31:34 39° SW 01:31:41 39° SSW 01:35:16 10° SE
Meteor 1-10 Rocket 4.2 01:29:04 23° SSW 01:32:49 88° WNW 01:38:40 10° NNE
NOSS 3-3 (C) 3.8 01:30:27 28° SW 01:33:26 82° NW 01:39:57 10° NE
Cosmos 2266 Rocket 4.1 01:29:17 10° NNW 01:35:13 53° W 01:39:09 21° SSW
Cosmos 1470 3.6 01:33:46 10° NNW 01:36:16 25° W 01:36:16 25° W
Gbstr 26 Del rocket 2.9 01:37:23 33° WSW 01:38:23 42° SSW 01:41:55 10° SE
USA 290 2.4 01:37:48 35° S 01:38:55 63° ESE 01:42:04 10° NNE
Cosmos 2333 4.3 01:43:04 10° NW 01:48:35 53° WSW 01:54:06 10° S
Cosmos 372 Rocket 4.0 01:43:25 10° NNW 01:48:38 86° ENE 01:53:46 10° SSE
DMSP B5D2-2 4.2 01:45:23 16° S 01:49:22 51° W 01:54:26 10° NNW
Cosmos 1655 Rocket 3.9 01:44:12 10° NNW 01:50:27 77° W 01:56:38 10° S
Cosmos 1812 Rocket 4.0 01:49:34 26° SW 01:51:37 45° WNW 01:55:49 10° N
NOSS 3-4 (A) 3.8 01:47:14 10° NW 01:53:52 72° SW 02:01:42 10° SSE
Meteor 2-20 Rocket 4.4 01:49:02 15° SSW 01:54:18 82° WNW 02:00:16 10° N
NOSS 3-4 (C) 3.8 01:47:46 10° NW 01:54:25 72° SW 02:02:17 10° SSE
IDEFIX/ARIANE 42P 3.7 01:50:12 10° N 01:54:33 28° WNW 01:57:22 18° WSW
Envisat 3.0 01:52:29 10° N 01:57:33 69° WNW 02:01:23 17° SSW
Meteor 2-4 Rocket 3.8 01:52:18 10° S 01:57:39 73° E 02:03:00 10° NNE
ISS -1.7 01:56:14 14° S 01:57:47 18° SE 02:00:11 10° E
Aureole 1 Rocket 3.2 01:55:49 10° NNW 01:59:52 58° WSW 02:04:55 10° S
JB-3 4.0 01:56:34 10° SSE 02:00:11 83° W 02:03:48 10° NNW
Cosmos 2084 Rocket 3.9 02:00:08 10° WNW 02:03:59 35° SW 02:07:50 10° S
Iridium 4 Rocket 3.8 02:03:00 19° SW 02:06:05 44° W 02:10:59 10° N
Cosmos 1461 3.8 02:03:16 13° S 02:06:11 36° ESE 02:09:38 10° NE
ATLAS 2AS CENTAUR R/B 4.3 02:00:43 10° WNW 02:06:32 28° N 02:12:18 10° NE
USA 234 3.3 02:01:42 10° SE 02:08:09 61° SW 02:14:39 10° WNW
H-2A R/B 2.7 02:06:25 19° SSW 02:08:32 35° W 02:11:52 10° NNW
Meteor 1-27 Rocket 3.9 02:03:31 13° SSW 02:08:51 73° WNW 02:14:48 10° N
Cosmos 1975 4.3 02:07:53 10° NW 02:10:10 16° W 02:10:36 16° W
ADEOS II 2.1 02:05:50 10° NNE 02:11:06 87° WNW 02:16:21 10° SSW
Cosmos 1842 Rocket 3.7 02:09:36 10° S 02:13:53 75° E 02:18:12 10° NNE
Cosmos 2297 Rocket 4.4 02:11:23 10° SSE 02:15:33 22° E 02:19:44 10° NE
ALOS 2.4 02:11:10 10° N 02:15:39 58° WNW 02:19:31 14° SSW
Cosmos 1238 Rocket 2.4 02:15:06 21° SW 02:16:42 44° WNW 02:19:39 10° N
Cosmos 1763 Rocket 4.1 02:13:16 17° SW 02:17:07 44° WNW 02:22:12 10° NNE
CZ-2D R/B 2.3 02:14:27 10° N 02:19:37 59° WNW 02:24:33 11° SW
SL-16 R/B 2.7 02:14:37 10° SSE 02:20:53 82° ENE 02:27:11 10° NNW
COSMOS 2428 2.9 02:15:26 10° NNW 02:21:12 79° ENE 02:26:54 10° SSE
ADEOS Rocket 4.2 02:15:20 10° N 02:22:12 41° WNW 02:28:49 12° SW
Cosmos 841 Rocket 3.8 02:19:16 10° SSW 02:24:21 67° ESE 02:29:31 10° NNE
Sich 1 2.9 02:21:09 10° N 02:25:21 88° ENE 02:29:30 10° S
Okean 3 Rocket 3.7 02:21:03 10° N 02:25:32 85° E 02:29:59 10° S
Cosmos 1758 3.6 02:25:25 10° N 02:29:03 61° ENE 02:32:38 10° SSE
Cosmos 1898 Rocket 3.5 02:24:33 10° NNW 02:29:39 60° WSW 02:34:42 10° S
Cosmos 1937 Rocket 3.4 02:29:02 10° NNW 02:34:14 73° WSW 02:39:22 10° SSE
Cosmos 1805 Rocket 4.0 02:30:11 10° N 02:34:36 65° ENE 02:38:56 10° SSE
Cosmos 2360 Rocket 3.4 02:32:05 10° NW 02:36:12 21° W 02:40:19 10° SSW
Cosmos 2333 Rocket 3.9 02:34:53 10° WNW 02:37:04 12° W 02:38:59 11° WSW
Alouette 2 Rocket 4.3 02:34:20 10° NNW 02:37:49 27° W 02:40:51 10° SSW
USA 305 2.4 02:39:29 10° NW 02:40:38 15° N 02:41:19 10° NE
Meteor 1-18 Rocket 4.2 02:37:16 10° SSW 02:42:50 88° WNW 02:48:25 10° NNE
Meteor 2-10 Rocket 3.6 02:38:32 10° NNW 02:43:32 56° W 02:48:39 10° S
H-2A R/B 2.1 02:40:37 10° NNE 02:44:40 72° ESE 02:48:37 10° S
Cosmos 2082 Rocket 4.4 02:44:16 10° WNW 02:47:28 15° NNW 02:50:41 10° N
Resurs 1-4 Rocket 3.0 02:43:21 10° N 02:48:05 34° WNW 02:52:47 10° SW
Cosmos 1553 Rocket 4.0 02:42:07 10° SSW 02:48:17 70° WNW 02:54:36 10° N
In-Cosmos 22 4.3 02:43:55 10° S 02:49:12 80° E 02:54:37 10° NNE
USA 276 2.9 02:50:08 11° SW 02:50:24 11° SSW 02:50:59 10° S
Cosmos 2322 Rocket 3.7 02:48:14 10° WNW 02:51:16 15° W 02:54:15 10° SW
BREEZE-M DEB (TANK) 3.9 02:50:49 10° W 02:54:07 54° SSW 03:04:42 10° ESE
Cosmos 1709 Rocket 4.2 02:49:42 10° N 02:55:50 77° E 03:01:57 10° SSE
CZ-2C R/B 3.2 02:51:09 10° NNE 02:55:58 55° E 03:00:37 10° S
Cosmos 1340 Rocket 3.6 02:52:49 10° N 02:56:29 53° ENE 03:00:11 10° SSE
